Location: The Saddle
(36.8333°N, 80.3417°W)
Time: 11:49:54
(UTC-05:00)

Tiangong - Visible Passes

Search period start: 03 December 2022 00:00
Search period end: 13 December 2022 00:00
Orbit: 386 x 394 km, 41.5° (Epoch: 02 December)

Date Brightness Start Highest point End Pass type
(mag) Time Alt. Az. Time Alt. Az. Time Alt. Az.
03 Dec -1.2 18:32:34 10° WNW 18:35:33 35° N 18:35:49 35° N visible
04 Dec -1.4 17:34:22 10° W 17:37:25 42° NNW 17:40:29 10° ENE visible
04 Dec 0.4 19:11:45 10° WNW 19:12:52 18° NW 19:12:52 18° NW visible
05 Dec -1.1 18:13:36 10° WNW 18:16:32 33° N 18:17:35 26° NE visible
06 Dec -0.7 18:52:32 10° WNW 18:54:36 32° NW 18:54:36 32° NW visible
07 Dec -1.3 17:54:21 10° WNW 17:57:20 36° N 17:59:21 17° ENE visible
07 Dec 1.1 19:31:15 10° WNW 19:31:40 13° WNW 19:31:40 13° WNW visible
08 Dec -2.2 18:33:04 10° WNW 18:36:14 65° NNE 18:36:28 62° NE visible
09 Dec -1.7 17:34:50 10° WNW 17:37:55 46° NNE 17:41:01 10° E visible
09 Dec 0.0 19:11:50 10° W 19:13:42 28° WSW 19:13:42 28° WSW visible
10 Dec -2.0 18:13:26 10° WNW 18:16:37 73° SSW 18:18:45 19° ESE visible
11 Dec 0.2 18:52:29 10° W 18:55:00 21° SSW 18:56:20 17° S visible
12 Dec -0.6 17:53:45 10° W 17:56:44 37° SSW 17:59:42 10° SE visible
